Regional Weather Roundup
Issued by NWS

Home | Current Version | Previous Version | Graphics & Text | Print | Product List | Glossary Off
Versions: 1 2 3 4 5 6 7 8 9 10 11 12 13 14 15 16 17 18 19 20 21 22 23 24 25 26 27 28 29 30 31 32 33 34 35 36 37 38 39 40 41 42 43 44 45 46 47 48 49 50

000
ASUS43 KTOP 121359
RWRKS

WEATHER ROUNDUP FOR KANSAS
NATIONAL WEATHER SERVICE GOODLAND KS
800 AM CST FRI FEB 12 2016

NOTE:  "FAIR" INDICATES FEW OR NO CLOUDS BELOW 12,000 FEET WITH NO
SIGNIFICANT WEATHER AND/OR OBSTRUCTIONS TO VISIBILITY.

KSZ001>006-013>018-027>032-041>047-121500-
NORTHWEST KANSAS

CITY           SKY/WX    TMP DP  RH WIND       PRES   REMARKS
GOODLAND       CLOUDY    28  24  85 W8        30.31R
HAYS           CLEAR     27  18  69 CALM      30.37R
HILL CITY      CLEAR     26  24  92 N3        30.38R
RUSSELL        CLOUDY    30  28  92 N14       30.36R WCI  19
$$

KSZ061>065-074>080-084>089-121500-
SOUTHWEST KANSAS

CITY           SKY/WX    TMP DP  RH WIND       PRES   REMARKS
DODGE CITY     CLOUDY    31  27  85 N9        30.32S
ELKHART          N/A     35  21  56 NW6         N/A
GARDEN CITY    PTCLDY    30  26  85 NW5       30.32R
GREAT BEND     CLEAR     28  19  69 MISG      30.37R
LIBERAL        CLOUDY    30  23  74 N8        30.33R
$$

KSZ066>073-081>083-090>101-121500-
SOUTHEAST KANSAS

CITY           SKY/WX    TMP DP  RH WIND       PRES   REMARKS
CHANUTE        CLEAR     30  24  78 N13       30.32R WCI  20
COFFEYVILLE    CLOUDY    30  25  81 NW7       30.32R
HUTCHINSON     CLEAR     30  26  85 N12       30.36R WCI  20
MEDICINE LODGE   N/A     34  30  85 N15       30.32R WCI  24
NEWTON         CLOUDY    28  23  80 N17       30.35R WCI  16
PARSONS        CLOUDY    31  25  78 N9        30.32R
WICHITA INTL   MOCLDY    32  27  81 N13       30.34R WCI  22
WICHITA JABRA  CLOUDY    30  27  88 N12G21    30.35R FOG     WCI  20
WINFIELD       CLEAR     32  27  81 N15       30.33R WCI  22
$$

KSZ007>012-019>026-033>040-048>060-102>105-121500-
NORTHEAST KANSAS

CITY           SKY/WX    TMP DP  RH WIND       PRES   REMARKS
CONCORDIA      CLOUDY    28  24  85 N12       30.39R WCI  18
EMPORIA        PTCLDY    26  23  88 NW6       30.35R
LAWRENCE       CLOUDY    30  23  75 N12       30.36R WCI  20
MANHATTAN      CLOUDY    30  26  85 N10       30.38R WCI  21
OLATHE IND     PTCLDY    28  22  78 N15       30.34R WCI  16
OLATHE EXE     MOCLDY    29  21  72 N12       30.33R WCI  19
SALINA         CLOUDY    31  26  82 N7        30.40R
TOPEKA BILLARD CLOUDY    31  24  75 N12       30.37R WCI  22
TOPEKA FORBES  CLOUDY    31  24  75 N12       30.35R WCI  22
$$



USA.gov is the U.S. government's official web portal to all federal, state and local government web resources and services.